Location: Gerlach
(40.6516°N, 119.3568°W)
Time: 14:39:43
(UTC-07:00)

A-11 Canister half - Pass Details

Date: 23 February 2024
Orbit: 1525 x 1683 km, 47.3° (Epoch: 21 April)

Event Time Altitude Azimuth Distance (km) Brightness Sun altitude
Exits shadow 01:45:12 15° 95° (E) 3,289 10.9 -52.9°
Drops below altitude 10° 01:46:34 10° 97° (E) 3,711 11.2 -52.7°
Sets 01:49:41 0° 101° (E) 4,707 11.8 -52.3°
